2023/09/29 00:00:00,19.4,18.7
2023/09/29 00:10:00,19.4,18.7
2023/09/29 00:20:00,19.4,18.8
2023/09/29 00:30:00,19.4,18.9
2023/09/29 00:40:00,19.4,18.7
2023/09/29 00:50:00,19.5,18.7
2023/09/29 01:00:00,19.7,18.7
2023/09/29 01:10:00,19.7,18.6
2023/09/29 01:20:00,19.8,18.3
2023/09/29 01:30:00,20.2,18.3
2023/09/29 01:40:00,18.9,18.3
2023/09/29 01:50:00,30.1,18.2
2023/09/29 02:00:00,34.7,17.9
2023/09/29 02:10:00,34.8,17.9
2023/09/29 02:20:00,34.2,17.8
2023/09/29 02:30:00,33.6,17.7
2023/09/29 02:40:00,34.0,17.6
2023/09/29 02:50:00,34.1,17.4
2023/09/29 03:00:00,34.0,17.4
2023/09/29 03:10:00,34.1,17.4
2023/09/29 03:20:00,34.0,17.4
2023/09/29 03:30:00,34.0,17.1
2023/09/29 03:40:00,33.9,17.2
2023/09/29 03:50:00,33.8,17.2
2023/09/29 04:00:00,33.7,16.9
2023/09/29 04:10:00,33.7,16.9
2023/09/29 04:20:00,33.6,16.8
2023/09/29 04:30:00,33.6,16.9
2023/09/29 04:40:00,33.4,16.7
2023/09/29 04:50:00,33.3,16.7
2023/09/29 05:00:00,33.2,16.6
2023/09/29 05:10:00,33.2,16.6
2023/09/29 05:20:00,33.5,16.7
2023/09/29 05:30:00,33.7,16.6
2023/09/29 05:40:00,33.7,16.4
2023/09/29 05:50:00,33.6,16.4
2023/09/29 06:00:00,33.6,16.3
2023/09/29 06:10:00,33.6,16.5
2023/09/29 06:20:00,33.6,16.4
2023/09/29 06:30:00,33.4,16.6
2023/09/29 06:40:00,33.4,16.7
2023/09/29 06:50:00,33.3,15.9
2023/09/29 07:00:00,33.3,16.7
2023/09/29 07:10:00,33.3,16.6
2023/09/29 07:20:00,33.4,16.9
2023/09/29 07:30:00,33.6,17.2
2023/09/29 07:40:00,33.5,17.7
2023/09/29 07:50:00,33.6,17.8
2023/09/29 08:00:00,33.5,18.0
2023/09/29 08:10:00,33.5,18.6
2023/09/29 08:20:00,33.4,18.8
2023/09/29 08:30:00,33.6,19.5
2023/09/29 08:40:00,33.4,19.9
2023/09/29 08:50:00,33.4,20.8
2023/09/29 09:00:00,33.3,21.3
2023/09/29 09:10:00,33.4,22.0
2023/09/29 09:20:00,33.6,22.8
2023/09/29 09:30:00,33.5,23.5
2023/09/29 09:40:00,33.6,24.0
2023/09/29 09:50:00,34.3,24.8
2023/09/29 10:00:00,34.5,25.3
2023/09/29 10:10:00,35.3,25.6
2023/09/29 10:20:00,37.3,25.2
2023/09/29 10:30:00,38.3,26.3
2023/09/29 10:40:00,38.5,26.6
2023/09/29 10:50:00,37.1,27.0
2023/09/29 11:00:00,37.4,27.7
2023/09/29 11:10:00,36.9,28.6
2023/09/29 11:20:00,36.9,29.8
2023/09/29 11:30:00,37.1,30.7
2023/09/29 11:40:00,37.4,30.6
2023/09/29 11:50:00,37.4,30.3
2023/09/29 12:00:00,37.2,30.5
2023/09/29 12:10:00,37.3,29.5
2023/09/29 12:20:00,37.4,29.7
2023/09/29 12:30:00,37.3,29.8
2023/09/29 12:40:00,37.4,30.0
2023/09/29 12:50:00,37.4,30.5
2023/09/29 13:00:00,37.4,30.3
2023/09/29 13:10:00,37.1,30.3
2023/09/29 13:20:00,38.3,30.2
2023/09/29 13:30:00,38.9,30.7
2023/09/29 13:40:00,39.0,31.1
2023/09/29 13:50:00,37.8,31.1
2023/09/29 14:00:00,37.9,31.5
2023/09/29 14:10:00,38.0,31.6
2023/09/29 14:20:00,38.9,31.3
2023/09/29 14:30:00,37.3,31.1
2023/09/29 14:40:00,30.3,31.8
2023/09/29 14:50:00,22.0,31.6
2023/09/29 15:00:00, 3.0,31.7
2023/09/29 15:10:00,---,32.0
2023/09/29 15:20:00,---,32.2
2023/09/29 15:30:00,34.9,30.4
2023/09/29 15:40:00,---,31.9
2023/09/29 15:50:00,34.1,32.2
2023/09/29 16:00:00,24.9,29.1
2023/09/29 16:10:00,19.2,27.6
2023/09/29 16:20:00,18.8,26.6
2023/09/29 16:30:00,---,25.8
2023/09/29 16:40:00,38.9,25.3
2023/09/29 16:50:00,40.0,25.0
2023/09/29 17:00:00,40.1,24.7
2023/09/29 17:10:00,40.1,24.4
2023/09/29 17:20:00,40.1,23.8
2023/09/29 17:30:00,39.8,23.5
2023/09/29 17:40:00,39.1,23.0
2023/09/29 17:50:00,38.4,22.6
2023/09/29 18:00:00,38.0,22.3
2023/09/29 18:10:00,37.7,21.7
2023/09/29 18:20:00,37.3,21.4
2023/09/29 18:30:00,37.0,21.0
2023/09/29 18:40:00,36.8,20.8
2023/09/29 18:50:00,36.5,20.3
2023/09/29 19:00:00,36.4,20.2
2023/09/29 19:10:00,36.4,20.0
2023/09/29 19:20:00,36.4,19.7
2023/09/29 19:30:00,36.4,19.7
2023/09/29 19:40:00,36.4,19.5
2023/09/29 19:50:00,36.4,19.2
2023/09/29 20:00:00,36.3,19.2
2023/09/29 20:10:00,36.3,19.0
2023/09/29 20:20:00,36.2,19.0
2023/09/29 20:30:00,36.2,18.6
2023/09/29 20:40:00,36.3,18.7
2023/09/29 20:50:00,36.4,18.6
2023/09/29 21:00:00,36.3,18.4
2023/09/29 21:10:00,36.3,18.3
2023/09/29 21:20:00,36.4,18.0
2023/09/29 21:30:00,36.2,18.0
2023/09/29 21:40:00,36.3,17.9
2023/09/29 21:50:00,36.4,18.1
2023/09/29 22:00:00,36.4,17.8
2023/09/29 22:10:00,36.4,17.7
2023/09/29 22:20:00,36.4,17.6
2023/09/29 22:30:00,36.4,17.7
2023/09/29 22:40:00,36.4,17.6
2023/09/29 22:50:00,36.4,17.6
2023/09/29 23:00:00,36.4,17.5
2023/09/29 23:10:00,36.5,17.5
2023/09/29 23:20:00,36.5,17.4
2023/09/29 23:30:00,36.7,17.3
2023/09/29 23:40:00,36.6,17.3
2023/09/29 23:50:00,36.6,17.4
